STARLINK-32621 (62303 NORAD) Tracking and Keplerian Element Data

This shows tracking and keplerian element data for the satellite.

Feedback or suggestion? Click here.




ElementValue
Catalog62303
NameSTARLINK-32621
Epoch Orbit825
Epoch Day34.80367574
Epoch Year2025
RAAN250.8997
Inclination53.1582
Eccentricity0.0001043
Argument of Perigee90.3835
Mean Anonmoly269.729
Mean Motion15.39618351
Decay Rate-1.5E-06
L11 62303U 24239C 25034.80367574 -.00000150 00000+0 62325-5 0 9997
L22 62303 53.1582 250.8997 0001043 90.3835 269.7290 15.39618351 8258



Live tracking and technical data element details for STARLINK-32621 (NORAD 62303). STARLINK-32621 can be tracked NOW for your location showing map with azimuth and elevation plus other details from your city location.







IsCatalogInMostPopularTable: catalog: 62303, numindb: 15
Update: records affected: 1



GetName: 62303 STARLINK-32621

Hit Count: updated at: Sun, 18 May 2025 23:31:52 GMT